Theta_e
355 358 356 361 365 363 371 367 361 364 370 363 365 365 362 358 356 348 347 351 348 350 347 345 366 362 359 364 365 360 358 362 361 360 363 366 366 360 354 357 355 355 354 355 356 357 359 360 362 365 366 364 363 362 362 362 362 362 361 362 362 363 362 359 357 356 355 352 348 345 343 341 342 342
365 361 359 356 356 361 358 358 351 363 362 363 363 362 370 360 356 361 350 350 353 351 352 349 353 367 356 360 361 359 360 365 362 367 366 367 363 356 351 353 352 352 353 353 354 357 359 361 361 360 359 357 356 358 359 361 361 362 363 363 364 363 361 357 355 355 354 353 350 346 344 343 343 341
363 363 364 365 365 368 358 359 352 364 370 369 369 370 368 375 375 366 361 347 359 358 353 354 352 350 350 348 348 348 353 360 360 365 368 367 356 352 354 353 352 351 351 351 352 352 354 355 354 352 352 352 353 355 359 360 361 361 361 362 362 360 357 355 354 354 354 353 351 347 345 344 344 343
364 365 362 371 366 366 366 364 360 368 367 361 361 356 362 374 369 360 355 350 350 364 355 354 354 353 351 353 350 351 352 352 359 368 368 366 359 360 358 355 353 352 351 351 350 350 350 349 349 350 351 352 354 356 359 360 359 360 360 360 359 356 353 351 351 352 351 351 350 348 346 345 344 343
364 367 367 368 367 371 368 370 361 357 355 359 356 356 362 355 356 355 355 352 355 362 367 360 356 356 358 351 359 354 354 355 359 358 359 367 359 356 356 353 348 349 350 349 349 350 348 346 346 348 350 352 353 355 357 355 355 357 355 354 350 347 346 346 346 348 349 349 349 349 347 345 344 343
361 365 364 369 364 370 363 360 355 355 352 351 348 360 352 355 357 358 357 360 357 354 364 362 364 358 359 352 364 358 356 355 361 356 358 357 356 351 353 352 350 350 350 347 347 348 346 345 344 345 348 351 352 353 352 350 348 348 347 344 341 341 340 340 342 344 344 346 347 348 346 345 344 343
367 364 366 362 363 357 358 360 357 355 358 354 354 354 359 356 355 360 368 364 358 355 358 364 357 359 363 360 359 362 360 362 359 361 360 352 353 355 355 354 353 348 348 348 347 345 344 344 343 343 345 347 347 347 345 341 339 340 339 337 338 339 338 337 339 341 341 343 345 347 346 344 343 343
363 361 363 360 361 361 364 365 368 365 357 358 366 369 367 364 365 366 369 369 363 361 354 363 360 363 362 363 363 362 360 357 359 358 360 360 358 358 357 356 353 352 343 348 347 345 343 342 341 341 341 340 338 337 337 336 336 336 336 336 336 335 334 333 334 337 337 337 338 341 344 344 343 340
367 366 364 363 364 368 360 364 361 360 362 365 366 361 366 369 369 366 369 368 370 362 359 359 364 366 364 364 363 364 360 360 362 368 364 361 359 360 358 353 353 349 345 343 343 341 341 341 341 340 339 339 338 337 336 335 335 335 334 335 335 334 333 332 330 331 331 332 333 332 335 338 340 338
363 360 363 363 363 362 361 361 365 369 369 369 364 363 366 370 372 368 369 369 367 368 365 363 357 360 360 361 371 369 365 361 359 361 363 364 363 363 361 356 352 351 350 350 352 346 345 343 338 338 338 337 337 337 336 336 335 334 333 330 330 332 332 331 331 330 329 329 330 331 332 333 335 335
358 358 357 362 362 361 363 360 361 367 368 361 367 371 370 370 369 366 367 362 359 364 361 360 359 357 362 363 356 364 365 362 362 359 358 358 362 366 368 363 361 354 354 353 350 349 347 344 344 338 336 335 335 336 336 336 335 335 333 329 329 330 329 328 329 330 328 328 327 326 325 328 333 335
356 356 355 353 359 365 369 366 369 370 364 369 366 369 364 372 369 365 366 365 366 362 359 359 355 359 357 357 360 360 363 360 358 362 355 347 356 357 362 360 358 359 360 359 357 353 353 352 351 344 345 346 345 343 342 343 342 340 336 332 334 333 330 329 329 328 327 325 324 323 322 322 325 330
357 354 351 352 354 368 365 362 370 370 366 363 365 372 371 368 366 367 367 364 366 364 359 357 358 356 354 357 357 358 359 355 348 352 359 356 356 356 355 360 362 362 360 359 358 358 360 358 358 359 359 362 358 357 350 349 349 345 338 335 335 335 334 331 329 328 327 325 324 322 322 321 322 325
356 356 353 353 358 360 360 357 366 367 362 365 359 366 367 370 367 364 362 361 359 359 358 355 353 349 348 345 347 348 347 347 353 356 357 355 356 357 357 359 363 366 362 359 358 360 363 360 360 362 361 363 364 363 362 359 351 345 341 339 335 335 335 333 331 328 326 325 324 323 321 321 322 322
359 355 353 349 355 364 362 368 373 367 361 363 361 360 362 366 366 358 356 355 356 355 353 354 350 347 347 351 351 350 349 354 355 356 358 358 358 356 353 350 356 372 363 359 358 358 362 362 360 361 361 363 364 361 360 347 345 340 339 338 337 335 335 335 334 330 327 325 324 323 321 321 321 321
355 352 350 350 353 356 360 359 373 370 368 363 363 361 360 359 359 358 359 357 354 354 352 354 353 352 351 353 356 353 353 357 358 360 360 359 357 354 353 353 351 359 363 358 355 356 360 361 360 358 360 361 361 359 348 343 345 342 341 339 337 336 335 335 335 333 331 328 327 326 325 324 323 322
356 358 361 353 353 359 365 358 359 367 371 371 362 361 360 361 357 345 342 346 358 358 358 355 354 356 358 356 358 361 363 364 359 359 356 357 358 358 355 354 353 356 362 358 356 353 356 358 357 356 358 359 359 360 351 346 343 342 341 340 337 336 335 334 334 333 331 329 327 325 324 323 323 322
357 357 358 359 358 352 346 344 347 354 358 365 366 368 368 367 367 361 347 343 341 349 353 355 353 358 363 360 365 368 364 360 357 356 355 357 355 354 354 356 356 360 364 357 355 350 353 357 355 352 355 358 358 360 348 341 344 341 338 338 335 334 334 333 333 332 331 329 327 325 322 321 321 321
362 362 360 361 356 348 342 337 339 348 351 352 356 360 360 360 362 362 355 359 360 363 357 356 357 359 364 360 359 362 363 361 360 361 359 358 357 357 360 359 359 357 362 360 357 348 353 357 353 352 354 356 358 361 347 343 342 338 337 337 336 333 333 333 332 331 330 329 327 324 322 320 319 318
359 356 357 359 352 345 340 331 327 336 349 355 357 359 359 359 359 359 364 342 350 358 358 359 357 355 353 341 352 351 347 353 354 355 358 358 357 354 351 349 352 352 357 358 354 348 349 356 352 351 354 355 354 356 359 347 344 341 340 340 337 333 331 330 330 330 330 328 327 325 322 319 317 316
351 351 349 348 347 344 339 327 320 325 344 355 355 355 355 355 356 357 359 349 345 339 337 337 339 337 334 334 330 327 328 336 344 355 353 351 350 349 346 348 349 349 352 356 356 352 348 352 353 351 352 352 350 353 357 359 348 342 341 340 339 336 333 329 327 327 328 327 326 326 325 320 317 318
351 351 354 348 343 341 337 320 320 322 343 350 350 351 350 351 352 353 354 353 353 343 342 343 341 342 340 338 336 339 335 336 350 353 349 350 350 347 347 345 346 348 351 357 355 348 347 351 353 350 351 351 353 354 356 358 354 345 344 342 340 337 334 332 328 327 327 326 326 325 323 320 319 324
352 345 345 343 335 335 326 316 318 321 338 346 346 348 348 349 350 349 347 346 347 351 352 356 359 358 357 364 363 361 354 356 359 357 353 351 350 346 346 346 345 342 347 356 355 346 346 347 350 351 346 343 349 359 356 356 358 358 358 362 360 338 337 337 335 330 325 324 324 324 321 319 319 335
351 347 343 337 322 318 317 314 313 315 318 338 344 348 347 345 344 343 343 347 348 352 354 355 355 357 358 357 357 354 353 357 360 357 356 352 349 347 347 346 345 342 344 352 355 347 347 350 348 351 349 343 341 349 353 354 355 356 358 359 356 345 344 343 342 339 334 328 323 320 319 319 318 335
347 344 340 337 324 315 314 313 311 311 315 324 341 345 340 340 335 329 340 346 351 354 355 354 353 358 358 355 352 355 355 357 357 358 356 357 353 349 348 346 346 345 348 352 348 350 346 349 346 348 347 348 348 347 349 351 353 355 358 356 354 356 356 357 352 358 341 337 333 326 322 319 316 325
341 340 339 336 325 313 312 310 310 310 313 318 340 340 317 314 318 333 339 344 349 349 349 348 348 346 347 345 346 347 346 344 347 347 356 360 356 355 355 353 347 345 346 353 345 351 349 347 347 344 344 344 344 346 344 345 350 353 354 355 355 355 357 357 358 358 358 356 353 343 340 327 326 318
335 339 336 333 327 311 307 306 308 311 312 328 333 313 314 317 319 330 341 349 347 345 345 344 344 342 342 342 341 341 341 341 346 345 346 347 344 350 354 362 359 355 355 355 359 357 353 349 350 346 342 344 341 341 341 339 339 347 348 350 352 354 356 359 359 357 356 355 354 336 333 334 328 321
323 326 326 328 311 306 304 306 310 312 318 326 313 310 315 319 329 337 345 339 343 344 342 341 339 338 340 338 338 338 341 342 344 347 344 340 340 342 343 345 348 346 346 346 357 359 354 350 348 349 349 345 341 338 336 340 342 343 343 348 349 352 355 356 359 356 355 355 355 355 354 353 354 334
329 323 314 311 309 310 308 309 312 315 319 316 315 316 318 335 345 339 336 337 339 338 335 334 335 336 336 337 337 341 345 345 346 341 338 337 339 339 340 341 342 342 343 341 361 358 356 353 349 350 350 348 344 343 342 339 340 340 342 342 342 349 352 360 360 356 353 354 355 355 355 355 356 356
322 318 315 314 313 318 321 332 337 339 342 330 327 325 332 338 334 332 334 334 334 332 329 330 331 330 332 333 336 342 343 344 336 335 333 332 333 334 335 333 336 340 340 340 339 339 337 339 344 343 336 336 338 337 340 342 341 342 343 344 346 349 354 354 354 355 353 352 353 355 356 357 358 356
324 329 335 331 322 319 321 323 326 327 330 337 338 336 325 330 329 334 334 329 328 329 328 329 328 330 332 335 337 334 334 335 334 334 333 330 330 331 331 332 333 332 335 333 332 333 335 339 336 332 328 328 330 332 335 339 339 341 344 347 348 344 349 352 352 351 352 352 352 352 353 353 353 353
323 328 333 331 338 337 336 338 333 331 336 333 327 330 324 329 328 330 331 329 328 328 329 331 331 331 332 330 329 330 328 330 330 331 331 330 330 329 329 328 327 327 329 330 330 333 341 336 332 330 329 329 328 331 334 336 336 339 343 346 347 348 348 344 339 340 344 345 345 347 349 350 350 351
324 330 334 334 334 328 325 324 326 325 326 327 327 324 325 327 325 327 324 322 322 325 327 326 326 326 327 328 328 327 325 327 327 329 330 331 328 329 330 326 325 325 323 323 325 329 331 330 332 332 331 332 334 335 335 333 337 342 333 329 328 326 327 330 331 331 333 334 336 338 341 347 351 352
323 329 331 326 321 323 324 321 322 321 323 323 324 325 324 326 324 324 323 321 323 325 325 323 322 325 326 324 325 323 323 325 325 326 325 327 329 327 323 322 323 324 323 321 323 324 324 325 327 331 334 336 338 336 337 336 329 325 323 321 320 320 324 326 327 328 330 332 333 335 338 341 344 349
326 329 326 323 323 324 324 323 321 323 322 322 323 322 323 324 324 323 321 321 323 324 321 321 322 324 323 322 321 320 322 322 322 324 325 325 326 323 322 321 320 321 320 320 320 320 321 322 325 325 324 327 327 330 337 326 320 319 319 319 321 323 323 325 327 329 331 333 336 337 339 340 341 343
325 323 323 323 322 323 322 321 323 322 321 321 322 322 321 321 322 321 320 321 322 320 319 318 320 322 321 320 320 321 321 320 321 321 321 321 321 322 321 321 320 319 319 318 317 319 321 323 324 320 318 319 318 315 315 322 324 320 318 319 323 323 324 326 329 331 332 334 337 332 326 324 326 330
322 322 322 320 320 320 320 320 320 321 319 320 320 321 320 319 320 320 323 324 320 318 318 319 320 320 319 319 320 319 319 319 318 319 319 319 319 319 318 318 318 317 315 316 318 319 323 322 321 320 318 316 313 311 312 317 318 320 325 322 321 323 324 326 328 329 332 330 325 324 324 326 328 331
320 320 320 320 320 320 320 320 320 320 320 320 321 320 319 320 320 320 324 319 317 317 318 319 319 319 318 319 317 316 317 317 317 316 316 316 315 315 314 313 313 313 313 315 319 320 321 319 319 319 317 313 311 311 311 315 317 320 320 322 321 323 325 326 327 324 323 324 323 326 329 327 326 326
318 318 318 318 318 318 318 319 319 317 318 318 318 317 317 317 316 319 319 316 318 318 318 318 318 318 319 317 316 315 314 314 313 314 314 314 314 313 312 311 311 311 313 314 316 316 316 316 317 317 315 313 311 312 314 314 315 319 320 317 321 324 326 325 321 321 322 323 324 325 324 326 325 324
318 319 317 318 318 317 317 317 316 316 316 317 317 317 316 315 316 317 316 316 318 319 317 316 318 316 316 316 314 313 313 313 312 312 312 312 311 311 310 311 311 312 312 312 311 312 312 313 315 315 315 315 317 319 320 320 320 322 324 323 316 319 321 321 320 321 321 321 321 319 319 322 322 326
319 318 317 318 317 317 316 315 315 316 316 316 316 317 317 317 318 315 316 317 319 316 315 316 316 315 314 314 313 311 310 310 310 310 310 309 309 310 311 311 310 311 309 309 309 309 311 313 318 318 320 318 320 320 317 315 313 315 317 320 316 315 315 316 321 319 318 320 320 319 319 320 321 322
319 317 319 317 316 315 315 315 315 314 314 315 314 314 315 317 317 316 316 318 317 316 313 312 313 313 313 313 311 310 308 308 308 308 308 308 308 308 309 309 308 308 307 306 307 308 311 314 316 316 315 315 314 312 310 311 312 313 315 316 318 316 316 316 314 315 319 319 319 317 317 318 319 317
316 315 314 314 314 314 314 314 315 314 313 314 314 315 314 313 313 313 312 312 313 311 310 310 311 311 310 307 306 307 306 306 306 306 306 307 308 307 306 306 307 307 307 307 308 310 310 311 312 312 311 311 312 312 310 311 311 311 312 312 314 315 317 317 316 315 315 314 314 315 317 316 314 313
313 313 312 313 313 314 314 313 312 312 312 311 312 312 311 310 310 310 310 309 309 309 309 309 309 307 305 305 305 304 304 304 304 304 305 306 306 306 306 306 307 306 306 306 306 307 308 309 310 310 308 308 309 309 309 309 309 310 310 311 312 312 313 315 316 315 315 316 315 314 315 315 315 316
312 312 312 311 312 311 311 311 311 310 310 310 309 309 310 309 309 308 308 307 306 306 306 305 304 304 304 304 303 302 302 304 303 303 304 304 304 305 305 306 305 305 304 305 304 305 306 306 307 308 308 308 309 308 309 309 308 309 309 309 310 311 311 312 311 311 313 315 316 316 314 315 315 314
Wind_Speed
3 2 2 3 1 2 1 1 2 4 2 2 2 2 2 4 1 2 2 3 3 4 8 4 1 3 3 5 6 6 5 5 7 4 4 3 2 5 9 11 13 13 12 11 10 10 9 10 11 11 11 9 9 10 11 11 12 12 12 12 12 12 11 9 9 9 9 9 10 9 10 10 10 10
3 4 3 1 1 1 4 5 5 4 4 2 2 3 1 6 3 1 1 3 2 4 4 5 3 2 5 6 6 4 2 6 4 3 3 2 3 4 10 11 14 15 15 12 10 10 11 10 11 11 11 10 9 9 10 10 11 12 12 12 13 12 10 9 8 8 9 9 10 10 10 11 10 10
3 2 2 1 2 2 3 4 3 2 1 2 2 2 1 2 2 1 2 2 2 2 4 4 6 6 5 7 5 6 4 2 3 3 3 3 6 10 9 15 16 17 17 15 10 11 12 11 11 12 11 10 9 9 9 9 10 11 11 12 12 11 10 9 9 8 9 9 10 11 11 12 11 11
4 4 0 1 1 2 3 3 4 2 2 2 2 4 3 2 2 4 3 4 5 2 4 5 5 7 5 5 6 5 4 5 2 3 4 4 8 7 7 13 17 17 17 13 9 13 13 11 12 13 12 10 10 10 10 10 10 9 10 11 11 11 10 9 9 9 9 9 10 11 11 12 12 11
3 4 2 2 2 2 2 2 3 4 3 4 6 5 3 3 3 4 4 4 3 2 2 4 6 6 6 6 4 5 4 5 5 4 5 4 5 8 8 5 9 10 7 5 11 14 12 11 13 14 13 11 11 10 11 11 11 10 10 10 10 10 10 10 9 9 9 9 10 11 11 12 12 11
4 3 1 2 3 3 4 4 5 5 4 3 4 2 5 5 5 5 3 2 2 3 2 4 3 5 6 6 4 6 7 5 4 6 5 5 4 4 5 7 8 6 4 9 12 13 11 11 13 15 14 12 11 12 12 12 12 11 11 10 10 9 10 10 9 9 9 9 9 10 11 11 11 11
3 4 3 3 4 5 4 5 5 4 3 3 4 4 4 5 5 3 2 1 1 3 3 3 5 4 4 5 6 6 6 4 5 5 4 6 7 6 7 6 8 2 7 10 12 12 10 12 14 16 14 11 13 14 14 14 13 12 11 10 9 9 10 10 10 9 9 9 9 10 10 11 11 11
4 4 4 4 4 4 3 2 1 2 3 4 3 1 1 3 2 3 2 2 2 2 4 2 4 3 4 4 5 6 5 6 5 5 4 4 5 6 6 5 7 2 7 11 12 9 11 14 16 17 13 12 14 15 15 14 14 13 11 10 10 10 10 10 10 10 9 9 9 9 10 11 11 11
3 3 3 4 3 3 3 3 2 3 4 2 2 3 2 1 2 2 2 2 2 3 4 4 3 4 4 5 6 5 4 4 4 3 4 5 5 6 5 6 6 10 11 10 9 10 12 14 16 16 14 13 15 16 15 14 15 15 13 11 10 11 10 10 10 10 9 9 9 9 10 10 11 11
5 5 4 4 4 3 3 3 2 2 2 2 2 3 3 0 1 2 2 2 3 2 2 3 4 5 6 3 2 3 4 4 4 4 5 5 6 5 4 3 6 7 7 7 8 12 12 11 11 11 12 14 15 15 14 15 16 17 16 12 11 11 10 10 10 9 9 9 9 9 9 10 10 10
6 6 7 4 4 4 3 3 3 2 2 2 2 2 2 2 2 1 2 3 4 3 3 4 5 5 3 2 4 3 4 4 5 6 5 5 4 3 2 3 3 5 7 10 12 11 11 10 8 11 15 13 12 14 15 15 16 16 16 13 11 11 11 10 10 10 10 10 9 9 9 9 10 10
8 7 7 7 3 2 2 2 2 2 2 2 2 1 3 1 1 3 3 2 2 3 3 3 4 3 5 5 5 5 3 3 5 5 5 5 3 4 3 3 5 6 6 6 7 9 11 12 13 13 12 13 14 14 14 13 14 15 14 11 12 12 11 11 10 10 10 10 10 9 9 9 10 10
5 9 9 6 3 6 7 9 3 4 4 2 0 1 2 3 3 2 2 3 3 3 4 5 4 5 5 5 5 3 2 3 6 4 4 4 4 5 6 5 5 5 6 5 7 8 9 11 10 10 9 8 10 10 11 10 12 13 13 12 12 13 13 10 10 10 10 11 10 10 9 10 10 10
6 7 7 6 4 8 6 2 5 7 7 4 2 1 1 2 2 3 3 4 4 3 4 4 5 5 5 5 4 6 6 6 4 6 7 8 7 7 6 6 3 4 5 6 7 8 8 10 10 8 8 8 8 6 6 6 11 13 13 10 11 13 12 10 10 9 10 11 11 10 10 9 9 10
6 7 6 7 3 3 3 3 9 6 4 4 3 4 3 2 2 3 4 4 4 4 4 4 5 5 5 5 5 5 5 5 7 6 5 6 6 6 7 9 7 2 6 6 7 8 7 7 8 8 8 8 8 7 6 11 13 12 12 11 10 11 12 11 9 9 11 11 11 10 9 9 9 10
4 4 6 6 2 1 5 3 4 6 7 6 5 6 6 6 5 4 4 5 6 5 5 5 4 5 5 5 4 5 6 5 6 5 5 5 6 7 7 7 8 6 6 8 8 8 6 6 8 8 7 8 8 9 9 12 12 13 12 11 10 11 12 10 9 10 11 11 9 9 9 9 10 10
5 3 3 5 6 6 15 11 10 8 3 1 3 4 5 6 7 9 10 9 9 7 7 6 6 4 4 5 4 4 4 4 5 5 5 5 5 5 7 8 8 9 6 7 7 7 7 6 6 7 7 7 8 9 8 12 14 14 14 12 11 10 10 10 11 12 11 10 9 9 10 10 11 11
8 6 6 6 6 8 9 7 9 9 9 8 5 2 2 3 7 10 13 15 13 8 6 5 7 6 5 5 3 3 5 5 5 6 6 5 6 6 7 8 9 8 5 6 6 6 5 6 7 7 7 8 8 7 11 18 18 15 13 12 9 10 12 12 12 11 10 10 10 10 10 10 11 11
7 7 6 6 8 7 7 6 7 7 5 7 8 8 6 5 4 5 3 4 2 1 3 5 6 6 4 4 5 4 3 3 4 5 6 7 7 8 7 5 5 6 5 8 7 8 8 6 7 6 8 10 9 7 11 15 15 11 12 11 9 10 12 13 12 12 12 11 10 10 10 10 10 10
7 8 7 5 8 7 5 5 6 5 2 2 4 4 5 5 6 6 3 5 6 5 4 4 3 4 4 3 4 4 4 4 4 4 4 4 4 6 6 7 6 6 6 7 7 6 8 7 8 8 7 8 8 9 8 11 12 14 13 11 10 11 12 13 14 14 13 11 10 11 11 10 9 8
8 7 8 7 5 5 4 6 8 9 6 2 4 4 5 5 6 5 5 9 8 9 10 9 6 5 7 8 8 9 10 4 2 3 4 5 6 5 6 6 6 6 6 4 5 6 8 6 7 9 8 7 8 8 7 7 10 16 16 13 12 13 13 13 14 14 14 13 12 12 12 10 7 7
6 10 14 9 5 5 4 7 7 10 6 4 4 4 5 6 6 4 6 7 7 10 10 9 9 7 6 6 5 6 7 6 3 5 4 6 6 6 6 6 6 6 5 2 6 7 7 8 7 9 8 7 3 5 5 6 8 11 12 11 12 14 13 13 13 13 14 14 14 14 13 7 5 4
5 6 10 13 10 7 6 8 8 9 7 4 4 4 4 4 5 6 9 8 8 7 8 6 6 5 6 5 4 3 6 6 5 3 3 3 4 4 5 5 6 6 3 2 5 6 8 9 7 7 10 9 5 1 6 7 7 8 9 6 7 13 15 15 14 12 12 12 13 13 11 5 4 4
5 5 5 7 8 9 9 9 9 9 8 5 5 5 5 5 6 7 8 8 7 6 6 6 6 4 4 4 3 6 7 5 3 2 2 1 0 3 3 4 4 4 3 1 3 4 5 4 7 7 6 9 8 7 6 7 7 7 6 7 8 11 12 12 10 11 9 8 9 10 9 5 6 4
4 5 5 4 6 8 8 8 9 9 9 7 5 5 4 3 4 5 5 8 11 5 5 5 5 3 3 3 4 2 2 1 2 3 3 3 3 3 3 4 4 5 5 6 2 2 3 5 7 6 6 5 7 9 7 6 6 5 5 7 8 8 7 8 6 6 6 7 7 6 6 5 9 9
5 4 3 4 5 7 8 8 9 9 8 10 5 4 4 7 8 7 5 7 4 6 6 6 5 6 5 6 5 5 6 6 7 7 5 3 4 4 4 4 5 7 7 7 0 2 5 4 4 7 6 6 7 7 9 7 5 6 6 6 6 7 7 8 6 5 5 6 6 6 9 12 9 11
4 3 2 2 6 7 7 7 7 7 9 8 3 8 9 8 10 8 5 3 5 5 4 5 5 5 5 5 5 5 6 6 6 7 6 6 7 5 4 4 4 6 8 8 6 4 3 3 2 5 7 7 8 8 7 7 8 6 7 6 6 6 6 6 5 4 5 7 8 10 11 10 11 10
4 3 3 3 5 7 7 7 5 7 7 7 11 10 9 8 7 5 4 5 5 5 4 4 5 5 5 5 5 6 5 6 5 5 7 9 8 7 6 6 8 8 9 9 5 1 2 4 4 3 4 6 8 8 10 7 7 7 8 7 7 7 5 5 4 5 6 6 6 6 7 8 6 3
3 3 4 6 7 7 9 9 8 6 7 10 10 11 11 7 2 5 6 5 5 5 6 5 5 4 5 5 5 5 4 4 4 6 7 7 7 7 7 7 8 8 7 5 1 2 2 4 7 7 5 4 7 8 8 10 9 9 8 10 8 7 7 4 6 7 7 6 6 6 6 7 7 6
9 8 9 10 10 9 7 4 3 1 2 6 8 9 9 3 4 4 5 4 5 5 6 5 6 6 5 5 5 5 5 4 6 6 6 6 6 7 7 8 8 8 7 6 8 8 9 8 6 8 9 9 8 9 9 9 10 9 9 8 8 7 4 6 7 7 8 8 7 7 7 7 8 7
6 7 7 5 8 9 10 9 5 5 5 6 4 2 5 4 5 3 4 5 5 5 5 5 5 5 5 5 5 6 6 6 6 4 5 5 6 6 7 7 7 7 7 9 10 10 10 8 8 9 10 10 10 9 9 9 10 10 9 7 6 7 7 7 6 8 8 8 8 7 7 7 7 8
6 5 7 8 5 5 5 4 4 3 3 3 4 4 4 3 5 5 10 9 5 4 4 3 4 4 5 6 6 6 6 6 6 5 5 5 6 6 7 5 6 6 6 7 7 7 7 7 8 8 8 8 10 10 9 8 9 9 8 8 8 7 7 9 10 10 10 11 10 9 8 7 8 7
5 4 5 4 3 4 3 5 5 5 5 5 5 7 5 3 5 5 7 6 6 6 5 6 6 5 5 5 5 6 6 6 6 5 5 4 5 5 5 5 5 5 7 8 8 7 6 8 7 9 9 9 9 10 9 9 7 6 8 9 10 10 8 8 9 11 12 11 11 11 10 8 7 8
3 4 4 4 5 5 5 5 5 6 6 6 5 5 5 5 6 5 7 6 6 5 5 6 6 6 5 5 5 6 6 6 6 6 6 6 6 5 6 6 6 6 6 7 8 8 9 9 9 8 7 7 7 10 6 5 7 7 8 8 9 10 9 10 9 10 10 10 11 12 10 9 8 8
4 3 4 5 4 5 4 5 5 5 5 5 5 5 5 5 7 6 6 6 4 5 6 6 6 5 5 5 6 6 5 6 6 6 6 6 6 6 6 6 7 7 7 8 8 9 9 10 9 9 8 7 6 4 6 11 11 12 12 10 8 9 10 10 10 10 10 11 9 10 10 9 8 8
5 6 6 6 5 5 5 5 4 5 5 5 5 5 5 5 6 6 6 5 5 6 6 6 5 5 6 6 6 5 6 6 6 6 6 6 6 6 5 6 6 7 7 7 9 9 8 8 8 10 11 10 10 11 9 9 8 8 9 9 8 9 10 9 9 9 10 9 8 10 12 12 12 10
5 5 6 6 6 6 6 6 5 5 6 5 5 5 5 5 6 6 5 4 7 5 6 6 5 5 5 5 5 5 6 6 6 6 6 6 6 6 7 7 7 7 8 8 8 9 7 7 7 7 9 9 10 12 14 9 7 5 5 8 11 10 10 10 10 9 7 9 11 10 10 11 11 11
5 5 5 5 5 4 4 4 4 5 5 5 5 5 5 5 6 6 5 6 6 5 5 5 5 5 5 5 6 6 6 6 7 7 7 7 7 7 7 8 8 8 8 8 7 6 7 8 7 7 7 9 10 11 14 15 12 3 4 8 11 12 10 9 9 10 12 9 9 8 8 11 12 12
6 5 5 5 5 5 5 5 5 5 5 5 5 5 5 5 5 5 4 5 4 4 5 5 5 4 5 6 6 6 7 7 7 7 7 7 7 8 8 8 9 8 8 8 7 7 7 7 7 7 8 8 9 10 10 12 14 15 10 11 12 9 7 9 12 11 10 11 11 10 10 9 13 16
4 4 4 4 5 5 4 5 5 5 5 5 4 4 5 5 5 4 5 4 4 5 5 5 5 5 5 6 6 6 6 7 7 7 7 8 8 8 8 7 8 8 7 8 8 7 7 7 7 8 9 9 10 10 10 10 11 11 11 7 4 6 10 10 10 10 11 11 12 13 15 13 12 9
2 3 3 3 3 3 4 4 4 4 5 5 4 5 5 5 4 4 4 4 4 5 5 5 6 6 5 5 4 5 6 6 6 6 7 7 8 7 9 9 7 7 8 8 8 8 7 7 10 15 12 9 8 8 9 8 9 9 10 10 9 10 10 7 7 10 12 12 12 12 12 12 13 13
4 4 4 5 4 5 4 4 4 4 4 4 4 4 4 4 4 7 5 5 6 6 7 7 7 6 6 6 8 8 7 7 7 7 8 7 7 7 8 7 8 8 8 9 9 9 8 8 10 9 8 9 9 8 9 9 10 10 10 11 12 12 13 14 14 13 12 10 10 11 11 11 10 11
5 4 5 5 5 5 4 5 4 4 4 4 4 4 4 4 5 5 5 5 5 5 6 7 7 7 9 10 9 8 8 8 9 9 10 9 8 8 7 7 8 9 9 9 8 9 9 9 8 8 9 9 8 8 10 10 10 11 11 11 12 12 13 15 14 13 14 16 14 12 11 12 10 11
4 5 5 5 4 4 4 4 5 5 5 6 6 6 6 6 6 7 7 8 8 7 6 6 7 10 9 8 8 8 8 9 9 10 10 10 10 9 9 7 6 6 7 9 9 9 9 8 8 8 9 8 8 9 11 11 11 11 11 11 11 12 12 12 13 15 15 13 15 19 22 23 18 16
5 5 5 4 5 5 6 6 6 6 6 6 6 5 5 5 6 6 7 9 9 9 9 9 9 9 9 9 8 8 8 9 9 9 10 10 10 10 10 10 9 8 7 8 10 10 9 9 9 8 7 7 7 9 10 11 12 12 12 12 13 11 11 12 14 14 14 12 10 13 12 11 14 18
Wind_Direction
300 260 198 170 346 331 31 304 321 98 86 314 349 286 226 124 120 281 323 319 320 327 330 326 255 228 229 241 241 250 265 215 201 215 228 223 276 183 211 231 248 260 261 254 249 247 254 262 268 266 267 271 274 279 280 282 285 286 285 285 283 280 280 278 272 262 249 235 222 210 217 223 238 251
201 269 292 279 220 231 178 197 220 158 163 175 256 267 161 137 180 184 254 277 288 296 315 319 319 268 275 268 259 240 297 175 222 270 316 306 319 174 226 248 263 269 268 264 247 244 251 259 263 266 268 272 277 276 278 280 283 285 285 284 282 281 280 278 271 263 253 239 226 211 215 222 231 244
249 238 280 20 281 326 333 355 326 349 148 183 196 266 2 149 137 136 163 268 270 316 303 300 300 317 305 298 336 329 334 267 240 292 313 334 321 303 278 272 278 280 280 273 244 241 248 251 258 263 264 269 271 275 268 271 275 280 282 283 283 283 282 279 274 266 257 244 230 219 215 222 227 236
22 319 341 342 356 303 327 318 321 329 249 257 266 250 220 208 165 167 202 221 268 270 294 304 310 299 298 327 320 320 316 318 222 280 320 319 300 284 275 273 264 265 267 262 224 239 244 246 255 258 260 261 264 266 265 266 273 270 275 278 282 285 286 283 278 272 262 251 236 227 218 220 224 228
204 223 203 271 288 319 287 297 292 294 279 209 201 213 205 222 218 208 205 234 265 268 277 302 293 304 330 308 300 309 323 338 319 326 309 301 297 286 278 295 325 290 261 210 224 238 243 246 252 255 255 256 259 262 265 269 270 269 271 274 278 281 282 280 278 275 268 259 246 233 224 220 221 223
281 302 234 232 261 231 219 227 239 250 270 272 262 192 212 205 219 192 196 227 237 283 278 279 308 304 290 292 343 344 327 303 310 300 293 288 289 301 336 344 327 308 193 213 234 246 248 252 254 256 254 257 262 264 263 265 267 267 269 267 266 270 271 273 274 271 268 265 256 244 233 226 222 221
249 252 255 248 231 244 237 209 224 244 262 308 328 335 4 11 346 350 360 97 283 281 285 303 297 309 334 331 318 308 301 309 305 309 314 334 329 337 340 329 317 171 212 227 247 253 260 261 263 261 259 262 265 267 267 265 266 265 264 264 261 259 260 264 266 267 265 262 260 252 242 235 228 224
230 230 226 246 258 267 284 284 9 354 315 284 290 343 313 296 280 308 324 321 323 314 295 277 280 285 299 293 289 300 308 310 323 313 321 324 327 316 306 306 314 245 236 246 255 276 271 267 267 268 269 265 266 269 269 269 268 265 259 256 255 252 252 256 260 262 261 258 256 254 249 241 236 229
251 255 259 244 237 238 262 292 264 227 237 253 351 321 315 13 57 319 306 282 281 291 291 297 294 305 287 277 279 273 290 300 297 327 325 310 289 285 278 306 316 316 294 264 268 268 265 266 269 275 276 271 271 271 273 275 272 267 261 249 250 251 250 250 254 257 258 256 253 253 251 249 242 236
237 241 235 233 239 246 244 246 277 321 335 2 248 250 258 248 23 312 289 276 268 248 278 296 301 286 279 286 281 275 271 283 301 287 268 268 270 268 280 284 312 321 327 341 335 311 296 281 280 284 279 276 277 282 281 274 271 268 262 251 246 250 249 247 248 251 252 250 248 247 249 249 247 243
270 257 245 224 215 231 252 249 241 241 228 236 275 268 271 244 238 295 355 322 298 269 265 263 249 272 267 283 289 271 269 270 255 260 271 276 273 266 268 296 302 328 327 318 301 297 300 308 320 315 305 294 284 282 280 277 274 273 269 255 245 245 246 245 245 246 248 247 243 241 243 247 248 245
271 255 250 248 241 231 266 282 270 290 329 258 259 48 304 344 126 226 247 266 286 290 287 285 295 288 290 281 260 255 262 279 285 258 257 289 320 328 329 331 329 318 309 303 317 323 327 325 314 306 304 304 296 286 285 284 276 275 276 260 247 243 241 243 242 244 247 247 244 239 236 239 243 245
304 293 288 280 230 176 195 236 216 160 173 153 358 314 345 349 337 312 303 300 307 305 286 284 279 284 288 278 277 298 290 296 285 306 356 341 335 337 328 311 304 289 305 306 317 323 327 316 320 319 311 309 311 315 316 297 291 292 281 260 241 240 238 238 241 243 247 248 245 239 234 233 234 237
285 286 292 287 290 270 259 223 232 208 191 178 208 201 251 267 295 297 289 279 275 277 289 291 299 301 302 314 334 345 329 308 344 360 359 347 335 325 314 301 299 313 305 330 324 314 319 320 312 310 312 318 318 313 318 328 329 327 316 283 248 242 241 238 239 241 245 246 244 241 237 234 233 232
288 280 268 273 253 252 219 221 210 227 216 212 240 253 252 295 295 289 283 272 263 265 279 293 296 295 303 321 326 306 315 357 356 338 334 317 321 326 328 319 313 311 357 327 314 308 313 310 310 314 311 308 307 308 314 324 326 326 317 297 263 241 236 235 236 240 242 242 241 240 237 234 232 232
269 283 293 304 41 308 324 263 215 208 217 217 224 236 242 244 244 221 232 276 293 291 290 290 293 299 291 292 308 328 339 342 336 332 329 325 327 324 316 309 304 314 337 320 310 305 310 316 305 300 305 310 309 316 312 314 318 322 318 296 266 238 231 234 237 238 238 239 238 237 234 230 229 228
239 273 325 350 40 59 38 22 1 359 360 348 254 277 296 291 274 264 249 228 234 252 260 272 272 271 300 315 326 344 341 353 333 336 328 325 318 310 300 297 304 308 318 309 306 307 311 304 301 307 312 318 318 317 329 335 327 322 327 307 271 249 243 243 239 236 238 238 236 232 228 226 224 223
53 46 39 49 63 47 41 21 9 4 3 1 352 313 266 268 267 251 240 249 249 256 275 284 282 289 300 301 338 5 15 354 334 324 319 325 313 305 298 302 297 297 312 308 318 305 311 315 310 313 323 330 325 328 349 341 318 324 337 337 296 262 254 249 244 244 246 244 238 232 227 225 224 222
58 54 63 79 78 66 46 27 1 27 5 2 345 337 323 317 309 299 350 46 20 241 226 255 273 285 317 354 350 348 349 334 315 325 322 320 307 296 294 305 326 324 2 353 337 317 320 326 328 321 327 326 323 329 333 313 310 337 355 345 308 270 263 262 264 259 254 250 246 241 235 228 227 226
48 47 47 61 76 65 55 7 356 18 350 320 290 310 337 328 325 337 36 83 72 68 40 15 356 348 322 279 293 303 327 340 354 330 316 299 305 323 330 320 331 332 358 354 359 329 315 326 322 315 317 320 315 320 311 307 326 357 348 331 314 295 283 278 272 268 266 262 256 250 242 235 228 225
57 54 53 49 56 68 49 6 0 359 350 20 5 343 329 329 324 327 345 358 360 19 8 352 324 301 318 328 337 343 13 56 286 314 334 348 343 332 330 331 337 339 329 4 355 314 305 325 327 314 316 314 306 303 311 319 347 339 323 323 335 329 319 307 291 281 277 272 264 256 247 236 221 214
69 58 58 59 59 55 46 4 10 0 353 11 358 341 336 325 321 337 0 347 342 344 340 325 321 313 313 323 322 49 68 52 10 6 354 352 350 347 341 328 331 312 297 33 353 328 310 320 326 314 306 298 266 301 308 341 332 327 328 330 345 351 346 329 308 291 283 276 271 267 262 247 195 189
98 76 56 50 47 48 32 14 17 12 7 12 350 347 321 333 344 9 350 338 332 335 331 329 331 337 358 3 29 84 92 45 41 30 0 350 349 337 331 328 328 317 301 17 22 335 325 328 328 335 324 319 315 314 349 333 340 334 316 338 348 339 334 329 325 314 299 292 290 288 286 280 203 249
115 94 85 56 39 45 39 29 18 14 3 4 341 355 12 4 352 350 333 322 324 312 310 318 321 352 9 353 8 37 24 353 43 332 247 214 219 288 302 314 315 302 291 311 46 331 291 292 314 328 306 314 324 345 337 338 330 316 326 347 338 324 322 322 323 326 330 327 318 308 298 269 207 254
67 71 56 69 39 30 34 24 17 7 352 335 329 21 17 5 311 318 316 319 318 311 326 320 333 4 320 357 10 24 96 195 215 268 244 216 185 221 269 302 291 291 273 271 150 309 308 316 307 316 313 303 300 315 325 315 315 314 342 329 315 316 316 313 313 316 334 352 336 315 297 274 228 226
72 60 50 51 25 14 8 9 4 348 341 323 296 4 356 322 338 330 309 293 318 355 344 349 355 360 3 10 2 17 20 5 4 333 318 265 188 221 247 272 292 303 302 309 28 235 303 306 302 315 312 318 313 319 318 319 307 314 314 301 300 305 309 309 315 321 338 337 320 315 308 304 283 231
72 78 84 58 24 3 354 346 334 323 319 313 338 334 333 332 322 315 293 310 15 345 346 347 356 351 6 358 7 18 14 353 345 333 322 356 8 340 306 274 252 255 279 289 276 241 266 276 302 308 311 314 312 316 308 316 317 319 306 305 306 305 305 309 315 341 331 323 319 312 311 299 285 260
56 30 22 355 330 328 323 314 297 297 297 282 295 306 312 319 307 278 311 14 355 333 347 353 4 358 7 6 1 10 348 339 328 325 357 4 345 332 330 330 324 313 301 286 276 203 221 263 289 278 291 309 314 316 314 300 293 307 309 311 312 305 309 320 328 323 320 318 314 315 314 319 304 243
15 340 317 314 313 303 296 290 288 252 259 267 277 291 301 316 308 33 32 0 353 2 358 358 351 358 8 2 2 331 320 317 349 18 7 345 332 337 332 332 320 312 302 341 54 212 237 303 309 308 306 300 304 302 303 304 310 309 314 320 317 321 318 329 332 322 318 315 306 305 306 303 304 283
351 327 308 303 297 291 275 271 287 282 236 266 267 274 287 296 60 50 34 360 10 14 357 346 358 0 358 353 330 328 338 12 33 8 357 339 337 337 337 334 322 310 325 349 1 7 355 341 336 348 337 327 319 308 305 309 307 304 307 304 298 302 310 333 323 319 316 314 313 308 302 299 291 302
344 321 302 280 273 265 269 266 268 284 313 295 294 95 4 28 61 43 67 37 23 18 347 349 359 339 348 330 345 358 357 15 10 11 345 343 334 336 338 322 316 330 347 1 359 354 339 343 355 353 334 319 314 304 300 300 296 301 304 302 316 319 316 318 323 320 314 309 311 300 299 301 298 295
305 298 286 284 261 256 255 237 202 220 242 27 346 61 20 14 61 32 49 39 23 2 331 349 343 336 354 347 1 3 359 4 349 354 344 338 338 338 326 325 332 335 344 346 338 329 328 348 341 327 315 305 303 300 298 292 289 298 307 326 334 332 340 338 332 329 330 325 315 314 307 304 302 302
309 306 296 267 339 345 25 23 20 28 37 43 3 23 24 0 48 36 56 26 10 346 341 7 351 351 347 356 5 5 349 352 339 336 329 333 337 320 316 329 323 345 344 337 332 325 338 331 320 309 301 297 288 286 292 299 312 346 357 348 342 334 333 336 336 331 331 325 318 316 313 306 301 291
290 302 299 28 36 7 27 30 24 15 28 30 13 12 5 11 46 33 48 20 357 339 0 9 345 340 353 358 8 357 346 339 339 325 342 334 327 329 344 335 344 352 343 331 329 336 332 320 311 302 294 292 292 290 308 7 359 356 346 337 336 332 333 334 329 326 323 316 311 309 307 308 298 290
321 299 41 51 41 9 31 41 23 11 28 31 14 9 9 19 32 42 37 8 328 360 12 356 333 342 5 359 2 344 343 346 330 344 344 334 339 343 343 342 347 345 340 333 336 334 324 317 318 324 326 323 323 319 15 22 2 355 341 337 334 327 323 321 322 322 319 312 307 304 309 314 319 333
5 20 25 41 36 19 34 39 28 22 27 22 16 11 19 17 30 29 21 339 8 15 5 342 333 357 5 5 343 339 347 344 338 345 336 342 342 338 347 349 343 338 340 339 331 320 314 313 336 337 333 340 339 328 314 39 35 357 325 317 329 323 311 312 315 314 311 311 328 337 329 324 324 325
35 24 37 34 31 27 22 26 17 29 23 17 17 18 21 9 23 20 353 9 33 3 350 326 338 4 3 349 341 357 349 343 348 340 346 345 347 350 351 347 344 344 336 329 315 304 310 330 342 334 344 341 336 321 312 318 356 330 307 330 317 310 309 312 314 308 317 334 326 320 313 315 317 319
36 27 43 41 37 31 27 27 11 25 19 19 17 18 16 17 20 354 354 33 11 355 337 333 344 5 352 352 356 353 345 352 346 351 350 349 348 355 352 343 340 336 323 312 308 319 345 337 336 357 359 340 322 321 317 320 320 337 13 314 301 299 307 308 314 326 322 319 310 312 317 314 309 310
31 31 35 30 28 20 25 23 23 18 15 18 14 13 10 19 2 338 17 17 355 334 339 333 348 350 353 13 3 354 352 353 353 349 347 344 354 352 346 340 332 322 316 315 331 339 340 328 351 353 345 321 313 305 301 300 302 307 306 277 269 288 309 330 323 316 316 320 322 317 299 282 278 279
35 41 39 21 31 26 20 22 20 11 5 17 9 16 18 8 331 346 4 341 345 360 342 334 337 4 11 14 5 358 354 352 348 341 348 354 352 344 331 328 314 310 315 329 329 334 327 334 339 335 320 310 294 286 283 276 276 282 295 308 338 344 323 320 313 322 323 322 314 310 310 313 310 310
77 68 65 50 45 35 28 29 16 360 9 12 357 18 6 329 318 6 342 338 5 356 340 344 7 5 2 10 3 4 347 346 343 346 352 345 331 323 321 318 314 328 332 324 324 319 326 329 320 313 306 296 296 298 293 293 298 305 309 311 318 309 292 303 325 320 307 303 301 302 304 310 314 315
23 48 45 51 36 31 25 26 16 10 359 359 357 10 332 328 355 345 339 1 11 1 4 4 359 357 349 2 12 10 4 354 355 349 338 325 323 327 324 329 330 336 327 321 320 320 318 321 319 320 314 317 311 309 309 308 308 317 321 318 314 321 328 322 301 285 279 294 310 315 312 311 310 305
42 31 41 33 25 27 10 10 8 3 5 356 3 337 339 358 345 349 1 7 17 15 11 359 351 351 18 26 14 5 359 358 352 341 330 327 327 324 328 334 334 327 323 316 317 318 319 319 320 324 325 316 316 319 313 318 316 309 310 315 320 322 315 311 310 313 318 312 301 285 284 288 302 295
34 29 37 34 22 19 14 14 13 7 1 359 355 1 2 359 1 6 4 5 3 6 1 359 10 22 17 12 8 2 359 352 343 333 331 328 326 327 325 317 310 312 317 321 320 316 312 316 324 324 317 318 324 323 320 319 314 318 316 315 312 311 312 324 325 316 302 282 271 268 267 265 266 272
32 31 27 18 14 16 19 17 9 5 356 3 354 354 353 0 7 359 7 24 19 10 10 10 11 6 3 1 359 355 352 342 336 333 327 326 326 324 317 316 316 320 328 327 318 315 323 324 317 313 310 319 326 320 319 317 316 316 312 310 313 318 320 319 313 309 306 305 297 285 289 311 326 327